FW9064 Weather Reports


Display with metric or nautical units.
time (UTC)temp
F
wind
direction
speed
MPH
gust
MPH
rain 1hr
in
rain 24hr
in
rain mn
in
humidity
%
barometer
mb
20260901040723 75 111 0.0 0.0 0.00 0.00 0.00 97 1018.7
20260901040222 75 111 0.0 0.0 0.00 0.00 0.00 97 1018.8
20260901035721 75 111 0.0 0.0 0.00 0.00 0.00 96 1018.9
20260901035220 75 111 0.0 0.0 0.00 0.00 0.00 96 1019.0
20260901034719 75 111 0.0 0.0 0.00 0.00 0.00 96 1018.9
20260901034214 75 110 0.0 0.0 0.00 0.00 0.00 96 1018.8
20260901033714 76 111 0.0 0.0 0.00 0.00 0.00 96 1018.6
20260901033213 76 111 0.0 0.0 0.00 0.00 0.00 96 1018.6
20260901032712 76 111 0.0 0.0 0.00 0.00 0.00 95 1018.7
20260901032213 76 111 0.0 0.0 0.00 0.00 0.00 95 1018.7
20260901031708 76 111 0.0 0.0 0.00 0.00 0.00 95 1019.0
20260901031204 76 110 0.0 0.0 0.00 0.00 0.00 95 1018.8
20260901030658 76 111 0.0 0.0 0.00 0.00 0.00 94 1018.9
20260901030147 76 110 0.0 0.0 0.00 0.00 0.00 94 1019.0
20260901025641 77 111 0.0 0.0 0.00 0.00 0.00 94 1018.9
20260901025136 77 111 0.0 0.0 0.00 0.00 0.00 94 1018.9
20260901024630 77 110 0.0 0.0 0.00 0.00 0.00 93 1018.9
20260901024129 77 111 0.0 0.0 0.00 0.00 0.00 93 1019.0
20260901023629 77 111 0.0 0.0 0.00 0.00 0.00 93 1018.9
20260901023123 77 111 0.0 0.0 0.00 0.00 0.00 93 1018.8
20260901022619 77 110 0.0 0.0 0.00 0.00 0.00 93 1018.9
20260901022114 77 111 0.0 0.0 0.00 0.00 0.00 92 1018.8
20260901021609 78 111 0.0 0.0 0.00 0.00 0.00 92 1018.6
20260901021104 78 111 0.0 0.0 0.00 0.00 0.00 92 1018.7
20260901020600 78 110 0.0 0.0 0.00 0.00 0.00 92 1018.6
20260901020055 78 112 0.0 0.0 0.00 0.00 0.00 91 1018.7
20260901015551 78 112 0.0 0.0 0.00 0.00 0.00 90 1018.4
20260901015050 78 111 0.0 0.0 0.00 0.00 0.00 90 1018.4
20260901014546 79 111 0.0 0.0 0.00 0.00 0.00 90 1018.6
20260901014042 79 112 0.0 0.0 0.00 0.00 0.00 89 1018.3
20260901013537 79 112 0.0 0.0 0.00 0.00 0.00 89 1018.2
20260901013033 79 112 0.0 0.0 0.00 0.00 0.00 89 1018.0
20260901012532 80 111 0.0 0.0 0.00 0.00 0.00 88 1018.0
20260901012028 80 112 0.0 0.0 0.00 0.00 0.00 87 1018.1
20260901011525 80 111 0.0 0.0 0.00 0.00 0.00 86 1017.9
20260901011022 80 112 0.0 0.0 0.00 0.00 0.00 85 1017.9
20260901010517 81 113 0.0 0.0 0.00 0.00 0.00 84 1018.1
20260901010016 81 113 0.0 0.0 0.00 0.00 0.00 84 1018.0
20260901005516 81 113 0.0 0.0 0.00 0.00 0.00 84 1017.9
20260901005012 81 112 0.0 0.0 0.00 0.00 0.00 84 1017.6
20260901004511 82 113 0.0 0.0 0.00 0.00 0.00 83 1017.7
20260901004006 82 113 0.0 0.0 0.00 0.00 0.00 82 1017.8
20260901003501 82 113 0.0 0.0 0.00 0.00 0.00 82 1017.6
20260901002959 83 111 0.0 0.0 0.00 0.00 0.00 81 1017.6
20260901002454 83 113 0.0 0.0 0.00 0.00 0.00 81 1017.7
20260901001948 84 112 0.0 0.0 0.00 0.00 0.00 79 1017.5
20260901001444 84 113 0.0 0.0 0.00 0.00 0.00 78 1017.6
20260901000939 85 112 0.0 0.0 0.00 0.00 0.00 77 1017.6
20260901000435 85 111 0.0 0.0 0.00 0.00 0.00 76 1017.9
20260831235932 86 113 0.0 0.0 0.00 0.00 0.00 75 1017.8
20260831235428 86 113 0.0 0.0 0.00 0.00 0.00 72 1017.7
20260831234923 87 113 0.0 0.0 0.00 0.00 0.00 71 1017.8
20260831234418 87 113 0.0 0.0 0.00 0.00 0.00 70 1017.8
20260831233913 88 113 0.0 0.0 0.00 0.00 0.00 70 1017.8
20260831233408 88 112 0.0 0.0 0.00 0.00 0.00 68 1017.8
20260831232904 89 113 0.0 0.0 0.00 0.00 0.00 65 1018.0
20260831232400 89 114 0.0 0.0 0.00 0.00 0.00 63 1017.8
20260831231855 89 115 0.0 0.0 0.00 0.00 0.00 63 1017.7
20260831231352 90 114 0.0 0.0 0.00 0.00 0.00 64 1017.6
20260831230847 90 102 0.0 1.0 0.00 0.00 0.00 63 1017.7
20260831230341 90 112 0.0 0.0 0.00 0.00 0.00 63 1017.8
20260831225841 90 104 0.0 1.0 0.00 0.00 0.00 64 1017.8
20260831225336 90 106 0.0 1.0 0.00 0.00 0.00 63 1017.8
20260831224832 90 100 1.0 2.0 0.00 0.00 0.00 63 1017.7
20260831224327 91 113 0.0 0.0 0.00 0.00 0.00 62 1017.8
20260831223821 91 112 0.0 0.0 0.00 0.00 0.00 63 1017.7
20260831223318 91 114 0.0 0.0 0.00 0.00 0.00 63 1017.9
20260831222815 91 110 0.0 0.0 0.00 0.00 0.00 62 1017.7
20260831222310 91 102 3.0 3.0 0.00 0.00 0.00 61 1017.7
20260831221805 91 113 0.0 0.0 0.00 0.00 0.00 60 1017.7
20260831221301 92 104 1.0 1.0 0.00 0.00 0.00 59 1017.9
20260831220800 92 136 1.0 1.0 0.00 0.00 0.00 59 1017.8
20260831220255 92 113 0.0 1.0 0.00 0.00 0.00 60 1018.0
20260831215750 92 98 0.0 0.0 0.00 0.00 0.00 59 1017.9
20260831215246 92 125 1.0 2.0 0.00 0.00 0.00 58 1017.9
20260831214743 92 109 0.0 0.0 0.00 0.00 0.00 57 1018.0
20260831214239 92 114 0.0 0.0 0.00 0.00 0.00 57 1017.9
20260831213735 92 117 0.0 0.0 0.00 0.00 0.00 59 1018.1
20260831213232 92 171 2.0 2.0 0.00 0.00 0.00 59 1018.2
20260831212732 92 116 1.0 2.0 0.00 0.00 0.00 60 1018.1
20260831212229 92 120 2.0 2.0 0.00 0.00 0.00 60 1018.2
20260831211726 93 109 0.0 1.0 0.00 0.00 0.00 60 1018.2
20260831211222 93 121 1.0 1.0 0.00 0.00 0.00 60 1018.3
20260831210717 93 108 0.0 0.0 0.00 0.00 0.00 58 1018.1
20260831210213 93 128 1.0 1.0 0.00 0.00 0.00 59 1018.3
20260831205712 93 104 0.0 0.0 0.00 0.00 0.00 60 1018.3
20260831205209 93 108 0.0 0.0 0.00 0.00 0.00 61 1018.3
20260831204708 93 119 0.0 0.0 0.00 0.00 0.00 60 1018.4
20260831204208 93 115 0.0 0.0 0.00 0.00 0.00 60 1018.4
20260831203707 93 105 0.0 0.0 0.00 0.00 0.00 60 1018.6
20260831203202 93 124 0.0 0.0 0.00 0.00 0.00 58 1018.3
20260831202700 93 125 0.0 0.0 0.00 0.00 0.00 60 1018.4
20260831202155 93 87 0.0 0.0 0.00 0.00 0.00 60 1018.4
20260831201655 92 173 0.0 0.0 0.00 0.00 0.00 62 1018.6
20260831201154 93 88 0.0 0.0 0.00 0.00 0.00 60 1018.6
20260831200651 92 103 0.0 0.0 0.00 0.00 0.00 59 1018.7
20260831200150 93 104 0.0 0.0 0.00 0.00 0.00 57 1018.7
20260831195646 93 110 0.0 0.0 0.00 0.00 0.00 59 1018.9
20260831195141 93 116 0.0 0.0 0.00 0.00 0.00 57 1018.9
20260831194636 94 79 0.0 0.0 0.00 0.00 0.00 56 1019.0
20260831194131 93 110 0.0 0.0 0.00 0.00 0.00 57 1019.2
20260831193626 93 111 3.0 5.0 0.00 0.00 0.00 57 1018.8
20260831193121 94 93 1.0 1.0 0.00 0.00 0.00 57 1018.7
20260831192616 94 109 0.0 1.0 0.00 0.00 0.00 56 1019.1
20260831192112 95 118 2.0 2.0 0.00 0.00 0.00 56 1018.9
20260831191608 96 123 0.0 1.0 0.00 0.00 0.00 55 1019.2
20260831191103 96 119 1.0 1.0 0.00 0.00 0.00 55 1019.3
20260831190558 95 122 0.0 0.0 0.00 0.00 0.00 57 1019.2
20260831190057 95 122 1.0 2.0 0.00 0.00 0.00 53 1019.3
20260831185553 95 114 0.0 0.0 0.00 0.00 0.00 54 1019.3
20260831185049 95 108 1.0 1.0 0.00 0.00 0.00 56 1019.5
20260831184548 95 116 0.0 1.0 0.00 0.00 0.00 57 1019.5
20260831184044 96 125 1.0 1.0 0.00 0.00 0.00 55 1019.7
20260831183543 96 76 3.0 6.0 0.00 0.00 0.00 55 1019.9
20260831183042 96 98 0.0 1.0 0.00 0.00 0.00 56 1020.0
20260831182536 95 110 1.0 1.0 0.00 0.00 0.00 55 1019.9
20260831182032 95 124 0.0 1.0 0.00 0.00 0.00 54 1020.0
20260831181527 94 118 1.0 1.0 0.00 0.00 0.00 57 1020.0
20260831181026 95 173 0.0 1.0 0.00 0.00 0.00 59 1019.9
20260831180521 95 149 1.0 1.0 0.00 0.00 0.00 57 1020.0
20260831180016 94 82 0.0 0.0 0.00 0.00 0.00 56 1020.1
20260831175512 94 116 0.0 0.0 0.00 0.00 0.00 58 1020.0
20260831175009 94 86 1.0 1.0 0.00 0.00 0.00 56 1020.3
20260831174508 93 124 1.0 2.0 0.00 0.00 0.00 59 1020.1
20260831174003 92 110 2.0 2.0 0.00 0.00 0.00 61 1020.1
20260831173501 91 113 0.0 0.0 0.00 0.00 0.00 65 1020.5
20260831172957 94 119 1.0 2.0 0.00 0.00 0.00 61 1020.2
20260831172453 94 113 1.0 1.0 0.00 0.00 0.00 59 1020.5
20260831171948 93 115 0.0 1.0 0.00 0.00 0.00 61 1020.5
20260831171443 94 78 0.0 1.0 0.00 0.00 0.00 63 1020.3
20260831170940 95 120 0.0 0.0 0.00 0.00 0.00 61 1020.6
20260831170436 94 103 1.0 1.0 0.00 0.00 0.00 61 1020.5
20260831165933 92 112 0.0 0.0 0.00 0.00 0.00 64 1020.5
20260831165428 94 134 0.0 1.0 0.00 0.00 0.00 64 1020.7
20260831164924 94 112 0.0 0.0 0.00 0.00 0.00 64 1020.9
20260831164420 93 114 0.0 0.0 0.00 0.00 0.00 65 1020.9
20260831163915 94 266 5.0 6.0 0.00 0.00 0.00 63 1021.0
20260831163411 93 113 0.0 0.0 0.00 0.00 0.00 65 1021.0
20260831162909 93 109 1.0 1.0 0.00 0.00 0.00 63 1021.0
20260831162405 93 97 0.0 1.0 0.00 0.00 0.00 63 1020.9
20260831161903 92 116 2.0 2.0 0.00 0.00 0.00 63 1021.0
20260831161400 92 112 0.0 0.0 0.00 0.00 0.00 65 1021.0
20260831160855 91 109 0.0 1.0 0.00 0.00 0.00 68 1021.2
20260831160349 91 91 1.0 2.0 0.00 0.00 0.00 67 1021.3
20260831155839 90 104 0.0 0.0 0.00 0.00 0.00 71 1021.1
20260831155338 91 115 0.0 0.0 0.00 0.00 0.00 70 1021.2
20260831154834 91 81 0.0 1.0 0.00 0.00 0.00 67 1021.4
20260831154331 90 114 0.0 0.0 0.00 0.00 0.00 70 1021.4
20260831153829 90 146 1.0 1.0 0.00 0.00 0.00 71 1021.1
20260831153325 89 113 0.0 1.0 0.00 0.00 0.00 73 1021.3
20260831152821 87 114 0.0 0.0 0.00 0.00 0.00 74 1021.3
20260831152316 88 111 1.0 1.0 0.00 0.00 0.00 72 1021.3
20260831151811 88 84 1.0 1.0 0.00 0.00 0.00 72 1021.3
20260831151310 87 113 0.0 0.0 0.00 0.00 0.00 75 1021.5
20260831150806 88 103 1.0 2.0 0.00 0.00 0.00 76 1021.3
20260831150301 88 105 0.0 0.0 0.00 0.00 0.00 74 1021.2
20260831145800 88 105 0.0 0.0 0.00 0.00 0.00 74 1021.2
20260831145256 87 111 0.0 0.0 0.00 0.00 0.00 75 1021.4
20260831144752 88 114 0.0 0.0 0.00 0.00 0.00 73 1021.2
20260831144249 88 112 0.0 0.0 0.00 0.00 0.00 75 1021.2
20260831143748 87 128 0.0 1.0 0.00 0.00 0.00 76 1021.3
20260831143243 87 112 0.0 0.0 0.00 0.00 0.00 76 1021.2
20260831142738 87 113 0.0 0.0 0.00 0.00 0.00 77 1021.2
20260831142234 86 108 0.0 0.0 0.00 0.00 0.00 77 1021.2
20260831141733 85 111 0.0 0.0 0.00 0.00 0.00 79 1021.2
20260831141228 85 104 0.0 1.0 0.00 0.00 0.00 79 1021.3
20260831140728 85 110 1.0 1.0 0.00 0.00 0.00 78 1021.2
20260831140223 84 112 0.0 0.0 0.00 0.00 0.00 81 1021.4
20260831135720 84 112 0.0 0.0 0.00 0.00 0.00 82 1021.3
20260831135217 83 115 0.0 0.0 0.00 0.00 0.00 83 1021.2
20260831134712 82 118 0.0 0.0 0.00 0.00 0.00 83 1021.4
20260831134208 82 110 0.0 0.0 0.00 0.00 0.00 86 1021.2
20260831133707 81 104 0.0 1.0 0.00 0.00 0.00 86 1021.4
20260831133201 79 112 1.0 1.0 0.00 0.00 0.00 90 1021.4
20260831132657 77 110 0.0 0.0 0.00 0.00 0.00 93 1021.3
20260831132156 76 104 0.0 0.0 0.00 0.00 0.00 99 1021.2
20260831131651 75 111 0.0 0.0 0.00 0.00 0.00 99 1021.4
20260831131148 75 110 0.0 0.0 0.00 0.00 0.00 99 1021.2
20260831130643 74 110 0.0 0.0 0.00 0.00 0.00 99 1021.2
20260831130138 74 118 0.0 0.0 0.00 0.00 0.00 99 1021.2
20260831125636 73 110 0.0 0.0 0.00 0.00 0.00 99 1021.2
20260831125133 73 111 0.0 0.0 0.00 0.00 0.00 99 1021.2
20260831124628 72 111 0.0 0.0 0.00 0.00 0.00 99 1021.1
20260831124124 72 110 0.0 0.0 0.00 0.00 0.00 99 1020.8
20260831123624 72 111 0.0 0.0 0.00 0.00 0.00 99 1021.0
20260831123123 71 110 0.0 0.0 0.00 0.00 0.00 99 1020.9
20260831122622 71 110 0.0 0.0 0.00 0.00 0.00 99 1020.9
20260831122119 71 110 0.0 0.0 0.00 0.00 0.00 99 1020.8
20260831121617 71 110 0.0 0.0 0.00 0.00 0.00 99 1020.7
20260831121114 70 111 0.0 0.0 0.00 0.00 0.00 99 1020.5
20260831120609 70 110 0.0 0.0 0.00 0.00 0.00 99 1020.3
20260831120104 70 110 0.0 0.0 0.00 0.00 0.00 99 1020.4
20260831115559 70 111 0.0 0.0 0.00 0.00 0.00 99 1020.3
20260831115055 70 110 0.0 0.0 0.00 0.00 0.00 99 1020.3
20260831114554 70 111 0.0 0.0 0.00 0.00 0.00 99 1020.3
20260831114049 69 111 0.0 0.0 0.00 0.00 0.00 99 1020.4
20260831113548 69 111 0.0 0.0 0.00 0.00 0.00 99 1020.4
20260831113044 69 111 0.0 0.0 0.00 0.00 0.00 99 1020.2
20260831112543 69 111 0.0 0.0 0.00 0.00 0.00 99 1019.9
20260831112038 69 111 0.0 0.0 0.00 0.00 0.00 99 1019.9
20260831111534 69 111 0.0 0.0 0.00 0.00 0.00 99 1019.9
20260831111030 70 112 0.0 0.0 0.00 0.00 0.00 99 1019.8
20260831110525 70 110 0.0 0.0 0.00 0.00 0.00 99 1019.8
20260831110020 70 112 0.0 0.0 0.00 0.00 0.00 99 1019.9
20260831105519 69 112 0.0 0.0 0.00 0.00 0.00 99 1019.9
20260831105015 69 111 0.0 0.0 0.00 0.00 0.00 99 1019.8
20260831104511 70 111 0.0 0.0 0.00 0.00 0.00 99 1019.7
20260831104007 70 110 0.0 0.0 0.00 0.00 0.00 99 1020.0
20260831103506 70 112 0.0 0.0 0.00 0.00 0.00 99 1019.7
20260831103003 70 112 0.0 0.0 0.00 0.00 0.00 99 1019.7
20260831102457 70 111 0.0 0.0 0.00 0.00 0.00 99 1019.7
20260831101952 70 112 0.0 0.0 0.00 0.00 0.00 99 1019.8
20260831101447 70 110 0.0 0.0 0.00 0.00 0.00 99 1019.5
20260831100943 70 110 0.0 0.0 0.00 0.00 0.00 99 1019.5
20260831100439 70 112 0.0 0.0 0.00 0.00 0.00 99 1019.5
20260831095934 70 110 0.0 0.0 0.00 0.00 0.00 99 1019.4
20260831095433 70 110 0.0 0.0 0.00 0.00 0.00 99 1019.6
20260831094928 70 110 0.0 0.0 0.00 0.00 0.00 99 1019.6
20260831094424 70 110 0.0 0.0 0.00 0.00 0.00 99 1019.6
20260831093920 70 110 0.0 0.0 0.00 0.00 0.00 99 1019.6
20260831093414 70 111 0.0 0.0 0.00 0.00 0.00 99 1019.4
20260831092912 70 110 0.0 0.0 0.00 0.00 0.00 99 1019.5
20260831092407 71 110 0.0 0.0 0.00 0.00 0.00 99 1019.3
20260831091902 71 111 0.0 0.0 0.00 0.00 0.00 99 1019.4
20260831091357 71 110 0.0 0.0 0.00 0.00 0.00 99 1019.3
20260831090852 71 110 0.0 0.0 0.00 0.00 0.00 99 1019.2
20260831090348 71 110 0.0 0.0 0.00 0.00 0.00 99 1019.5
20260831085844 71 109 0.0 0.0 0.00 0.00 0.00 99 1019.1
20260831085338 71 110 0.0 0.0 0.00 0.00 0.00 99 1019.5
20260831084833 71 111 0.0 0.0 0.00 0.00 0.00 99 1019.3
20260831084329 71 112 0.0 0.0 0.00 0.00 0.00 99 1019.1
20260831083826 71 110 0.0 0.0 0.00 0.00 0.00 99 1018.9
20260831083321 71 110 0.0 0.0 0.00 0.00 0.00 99 1019.0
20260831082819 71 111 0.0 0.0 0.00 0.00 0.00 99 1018.9
20260831082314 71 112 0.0 0.0 0.00 0.00 0.00 99 1019.0
20260831081810 71 111 0.0 0.0 0.00 0.00 0.00 99 1018.9
20260831081305 71 111 0.0 0.0 0.00 0.00 0.00 99 1018.7
20260831080801 71 111 0.0 0.0 0.00 0.00 0.00 99 1018.7
20260831080255 71 110 0.0 0.0 0.00 0.00 0.00 99 1018.9
20260831075751 71 110 0.0 0.0 0.00 0.00 0.00 99 1018.8
20260831075247 71 110 0.0 0.0 0.00 0.00 0.00 99 1019.1
20260831074747 71 110 0.0 0.0 0.00 0.00 0.00 99 1018.7
20260831074245 71 107 0.0 0.0 0.00 0.00 0.00 99 1018.8
20260831073742 71 110 0.0 0.0 0.00 0.00 0.00 99 1018.7
20260831073240 71 110 0.0 0.0 0.00 0.00 0.00 99 1018.6
20260831072736 71 110 0.0 0.0 0.00 0.00 0.00 99 1018.8
20260831072232 71 111 0.0 0.0 0.00 0.00 0.00 99 1018.7
20260831071732 71 111 0.0 0.0 0.00 0.00 0.00 99 1018.6
20260831071227 72 111 0.0 0.0 0.00 0.00 0.00 99 1018.6
20260831070721 72 111 0.0 0.0 0.00 0.00 0.00 99 1018.8
20260831070215 72 108 0.0 0.0 0.00 0.00 0.00 99 1018.8
20260831065714 72 111 0.0 0.0 0.00 0.00 0.00 99 1018.8
20260831065213 72 111 0.0 0.0 0.00 0.00 0.00 99 1018.7
20260831064708 72 111 0.0 0.0 0.00 0.00 0.00 99 1019.1
20260831064203 72 112 0.0 0.0 0.00 0.00 0.00 99 1018.9
20260831063659 72 110 0.0 0.0 0.00 0.00 0.00 99 1019.1
20260831063154 72 111 0.0 0.0 0.00 0.00 0.00 99 1018.8
20260831062648 72 111 0.0 0.0 0.00 0.00 0.00 99 1018.8
20260831062142 72 111 0.0 0.0 0.00 0.00 0.00 99 1018.9
20260831061640 72 111 0.0 0.0 0.00 0.00 0.00 99 1019.1
20260831061136 72 110 0.0 0.0 0.00 0.00 0.00 99 1018.8
20260831060632 72 113 0.0 0.0 0.00 0.00 0.00 99 1018.9
20260831060126 72 110 0.0 0.0 0.00 0.00 0.00 99 1018.9
20260831055626 72 110 0.0 0.0 0.00 0.00 0.00 99 1019.1
20260831055121 73 110 0.0 0.0 0.00 0.00 0.00 99 1019.2
20260831054621 73 110 0.0 0.0 0.00 0.00 0.00 99 1019.2
20260831054115 73 110 0.0 0.0 0.00 0.00 0.00 99 1019.0
20260831053615 73 110 0.0 0.0 0.00 0.00 0.00 98 1018.9
20260831053114 73 110 0.0 0.0 0.00 0.00 0.00 98 1019.2
20260831052612 73 110 0.0 0.0 0.00 0.00 0.00 98 1019.2
20260831052107 73 110 0.0 0.0 0.00 0.00 0.00 98 1019.1
20260831051605 73 110 0.0 0.0 0.00 0.00 0.00 98 1019.2
20260831051104 73 112 0.0 0.0 0.00 0.00 0.00 98 1019.2
20260831050604 73 111 0.0 0.0 0.00 0.00 0.00 98 1019.2
20260831050103 73 110 0.0 0.0 0.00 0.00 0.00 98 1019.3
20260831045603 73 111 0.0 0.0 0.00 0.00 0.00 98 1019.2
20260831045057 73 111 0.0 0.0 0.00 0.00 0.00 98 1019.2
20260831044553 73 109 0.0 0.0 0.00 0.00 0.00 98 1019.2
20260831044048 73 111 0.0 0.0 0.00 0.00 0.00 98 1019.1
20260831043543 73 110 0.0 0.0 0.00 0.00 0.00 98 1019.0
20260831043038 73 110 0.0 0.0 0.00 0.00 0.00 98 1019.3
20260831042532 74 110 0.0 0.0 0.00 0.00 0.00 98 1019.2
20260831042032 74 110 0.0 0.0 0.00 0.00 0.00 98 1019.1
20260831041527 74 111 0.0 0.0 0.00 0.00 0.00 98 1019.3
20260831041021 74 111 0.0 0.0 0.00 0.00 0.00 98 1019.1